Huntington, WV

5:19 PM EDT on May 23, 2017 (GMT -0400)
Tri-State / Ferguson

Weather History for KHTS - March, 2013

Change the Weather History Date:

Tuesday, March 5, 2013

  Actual Average Record
Temperature  
Mean Temperature 41 °F 42 °F  
Max Temperature 49 °F 52 °F 82 °F (1983)
Min Temperature 32 °F 32 °F 7 °F (1978)
Degree Days  
Heating Degree Days 24 23  
Month to date heating degree days 156 117  
Since 1 July heating degree days 3571 3618  
Cooling Degree Days 0 0  
Month to date cooling degree days 0 0  
Year to date cooling degree days 0 0  
Moisture  
Dew Point 34 °F    
Average Humidity 82    
Maximum Humidity 93    
Minimum Humidity 71    
Precipitation  
Precipitation 0.59 in 0.12 in 2.35 in (1989)
Month to date precipitation 0.65 0.59  
Year to date precipitation 6.33 6.63  
Snow  
Snow T in - - ()
Month to date snowfall T  
Since 1 September snowfall 11.9  
Snow Depth 0.00 in    
Sea Level Pressure  
Sea Level Pressure 29.76 in    
Wind  
Wind Speed 7 mph (East)    
Max Wind Speed 28 mph    
Max Gust Speed 40 mph    
Visibility 6 miles    
Events Rain , Snow    
T = Trace of Precipitation, MM = Missing Value Source: NWS Daily Summary

Daily Weather History Graph

Daily Weather History Graph

Search for Another Location

Airport or City:

Trip Planner

Search our weather history database for the weather conditions in past years. The results will help you decide how hot, cold, wet, or windy it might be!

Date:

Astronomy

Mar. 05, 2013 Rise Set
Actual Time 6:56 AM EST 6:27 PM EST
Civil Twilight 6:29 AM EST 6:54 PM EST
Nautical Twilight 5:59 AM EST 7:24 PM EST
Astronomical Twilight 5:28 AM EST 7:55 PM EST
Moon 2:03 AM EST (3/5) 12:09 PM EST (3/5)
Length of Visible Light 12h 24m
Length of Day
11h 31m
Last Quarter, 41% of the Moon is Illuminated
Mar 5
Last Quarter
Mar 11
New
Mar 19
First Quarter
Mar 27
Full
Apr 3
Last Quarter

Hourly Weather History & Observations

Time (EST) Temp. Windchill Dew Point Humidity Pressure Visibility Wind Dir Wind Speed Gust Speed Precip Events Conditions
12:51 AM 35.1 °F 32.2 °F 28.9 °F 78% 30.05 in 10.0 mi ENE 3.5 mph - 0.00 in   Overcast
2:51 AM 35.6 °F 31.7 °F 28.4 °F 75% 30.00 in 10.0 mi ENE 4.6 mph - N/A   Overcast
3:51 AM 35.1 °F 32.2 °F 28.9 °F 78% 30.01 in 10.0 mi NNE 3.5 mph - N/A   Overcast
4:51 AM 35.1 °F 28.6 °F 28.0 °F 76% 29.98 in 10.0 mi ENE 8.1 mph - N/A   Overcast
5:51 AM 35.1 °F 30.1 °F 28.9 °F 78% 29.97 in 10.0 mi East 5.8 mph - N/A   Overcast
6:51 AM 36.0 °F 32.1 °F 28.9 °F 76% 29.97 in 10.0 mi ENE 4.6 mph - N/A   Overcast
7:51 AM 36.0 °F 31.1 °F 30.0 °F 79% 29.94 in 10.0 mi ENE 5.8 mph - N/A   Overcast
8:51 AM 35.6 °F 31.7 °F 32.0 °F 87% 29.92 in 10.0 mi ENE 4.6 mph - N/A   Overcast
9:51 AM 37.0 °F 33.3 °F 34.0 °F 89% 29.93 in 8.0 mi NE 4.6 mph - 0.01 in Rain Light Rain
10:51 AM 37.9 °F 33.5 °F 35.1 °F 89% 29.90 in 6.0 mi ENE 5.8 mph - 0.01 in Rain Light Rain
11:51 AM 39.0 °F 33.4 °F 36.0 °F 89% 29.86 in 6.0 mi ENE 8.1 mph - 0.00 in   Overcast
12:51 PM 42.1 °F 37.1 °F 37.0 °F 82% 29.80 in 6.0 mi ENE 8.1 mph - N/A   Haze
1:51 PM 46.9 °F - 39.0 °F 74% 29.74 in 10.0 mi East 6.9 mph - N/A   Mostly Cloudy
2:51 PM 48.9 °F - 39.0 °F 69% 29.72 in 10.0 mi ESE 3.5 mph - N/A   Overcast
3:51 PM 46.0 °F 42.5 °F 42.1 °F 86% 29.65 in 6.0 mi ENE 6.9 mph - 0.02 in Rain Light Rain
4:51 PM 46.0 °F 43.9 °F 42.1 °F 86% 29.62 in 2.5 mi ENE 4.6 mph - 0.02 in Rain Rain
5:32 PM 44.6 °F 40.7 °F 42.8 °F 93% 29.57 in 5.0 mi ENE 6.9 mph - 0.08 in Rain Light Rain
5:51 PM 45.0 °F 41.8 °F 43.0 °F 93% 29.57 in 5.0 mi East 5.8 mph - 0.09 in Rain Light Rain
6:51 PM 46.0 °F 42.5 °F 43.0 °F 89% 29.55 in 4.0 mi East 6.9 mph - 0.03 in Rain Light Rain
7:51 PM 46.0 °F 44.8 °F 44.1 °F 93% 29.51 in 3.0 mi East 3.5 mph - 0.12 in Rain Rain
8:34 PM 46.4 °F - 44.6 °F 93% 29.48 in 2.5 mi Calm Calm - 0.11 in Rain Heavy Rain
8:51 PM 46.0 °F 38.5 °F 43.0 °F 89% 29.52 in 4.0 mi WSW 19.6 mph 28.8 mph 0.17 in Rain Rain
9:41 PM 33.8 °F 23.2 °F 32.0 °F 93% 29.60 in 2.5 mi WSW 17.3 mph 29.9 mph 0.07 in Snow Light Snow
9:51 PM 34.0 °F 24.2 °F 30.9 °F 89% 29.62 in 1.8 mi WSW 15.0 mph 28.8 mph 0.08 in Snow Light Snow
10:13 PM 33.8 °F 23.5 °F 30.2 °F 87% 29.62 in 1.0 mi WSW 16.1 mph 24.2 mph 0.02 in Snow Light Snow
10:37 PM 33.8 °F 24.3 °F 30.2 °F 87% 29.64 in 2.0 mi WSW 13.8 mph 23.0 mph 0.04 in Snow Light Snow
10:51 PM 34.0 °F 25.0 °F 30.0 °F 85% 29.66 in 3.0 mi WSW 12.7 mph 31.1 mph 0.04 in Snow Light Snow
11:08 PM 33.8 °F 25.3 °F 30.2 °F 87% 29.65 in 2.5 mi WSW 11.5 mph 23.0 mph 0.00 in Snow Light Snow
11:10 PM 33.8 °F 22.8 °F 30.2 °F 87% 29.65 in 3.0 mi SW 18.4 mph 27.6 mph 0.00 in Snow Light Snow
11:20 PM 33.8 °F 23.9 °F 30.2 °F 87% 29.65 in 4.0 mi WSW 15.0 mph 25.3 mph 0.00 in Snow Light Snow
11:43 PM 33.8 °F 23.5 °F 28.4 °F 81% 29.65 in 1.8 mi WSW 16.1 mph 34.5 mph 0.00 in Snow Light Snow
11:51 PM 33.1 °F 23.4 °F 28.9 °F 85% 29.67 in 1.2 mi WSW 13.8 mph 25.3 mph 0.00 in Snow Light Snow